Probability
0 0 0 0 0 0 0 0 0 0 0 0 0 0 0 0 0 0 0 0 0 0 0 0 0 0 0 0 0 0 0 0 0 0 0 0 0 0 0 0 0 0 0
0 0 0 0 0 0 0 0 0 0 0 0 0 0 0 0 0 0 0 0 0 0 0 0 0 0 0 0 0 0 0 0 0 0 0 0 0 0 0 0 0 0 0
0 0 0 0 0 0 0 0 0 0 0 0 0 0 0 0 0 0 0 0 0 0 0 0 0 0 0 0 0 0 0 0 0 0 0 0 0 0 0 0 0 0 0
0 0 0 0 0 0 0 0 0 0 0 0 0 0 0 0 0 0 0 0 0 0 0 0 0 0 0 0 0 0 0 0 0 0 0 0 0 0 0 0 0 0 0
0 0 0 0 0 0 0 0 0 0 0 0 0 0 0 0 0 0 0 0 0 0 0 0 0 0 0 0 0 0 0 0 0 0 0 0 0 0 0 0 0 0 0
0 0 0 0 0 0 0 0 0 0 0 0 0 0 0 0 0 0 0 0 0 0 0 0 0 0 0 0 0 0 0 0 0 0 0 0 0 1 1 0 0 0 0
0 0 0 0 0 0 0 0 0 0 0 0 0 0 0 0 0 0 0 0 0 0 0 0 0 0 0 0 0 0 0 0 0 0 0 0 0 1 1 0 0 0 0
0 0 0 0 0 0 0 0 0 0 0 0 0 0 0 0 0 0 0 0 0 0 0 0 0 0 0 0 0 0 0 0 0 0 0 0 0 0 0 0 0 0 0
0 0 0 0 0 0 0 0 0 0 0 0 0 0 0 0 0 0 0 0 0 0 0 0 0 0 0 0 0 0 0 0 0 0 0 0 0 0 0 0 0 0 0
0 0 0 0 0 0 0 0 0 0 0 0 0 0 0 0 0 0 0 0 0 0 0 0 0 0 0 0 0 0 0 0 0 0 0 0 0 0 0 0 0 0 0
0 0 0 0 0 0 0 0 0 0 0 0 0 0 0 0 0 0 0 0 0 0 0 0 0 0 0 0 0 0 0 0 0 0 0 0 0 0 0 0 0 0 0
0 0 0 0 0 0 0 0 0 0 0 0 0 0 0 0 0 0 0 0 0 0 0 0 0 0 0 0 0 0 0 0 0 0 0 0 0 0 0 0 0 0 0
0 0 0 0 0 0 0 0 0 0 0 0 0 0 0 0 0 0 0 0 0 0 0 0 0 0 0 0 0 0 0 0 0 0 0 0 0 0 0 0 0 0 0
0 0 0 0 0 0 0 0 0 0 0 0 0 0 0 0 0 0 0 0 0 0 0 0 0 0 0 0 0 0 0 0 0 0 0 0 0 0 0 0 0 0 0
0 0 0 0 0 0 0 0 0 0 0 0 0 0 0 0 0 0 0 0 0 0 0 0 0 0 0 0 0 0 0 0 0 0 0 0 0 0 0 0 0 0 0
0 0 0 0 0 0 0 0 0 0 0 0 0 0 0 0 0 0 0 0 0 0 0 0 0 0 0 0 0 0 0 0 0 0 0 0 0 0 0 0 0 0 0
0 0 0 0 0 0 0 0 0 0 0 0 0 0 0 0 0 0 0 0 0 0 0 0 0 0 0 0 0 0 0 0 0 0 0 0 0 0 0 0 0 0 0
0 0 0 0 0 0 0 0 0 0 0 0 0 0 0 0 0 0 0 0 0 0 0 0 0 0 0 0 0 0 0 0 0 0 0 0 0 0 0 0 0 0 0
0 0 0 0 0 0 0 0 0 0 0 0 0 0 0 0 0 0 0 0 0 0 0 0 0 0 0 0 0 0 0 0 0 0 0 0 0 0 0 0 0 0 0
0 0 0 0 0 0 0 0 0 0 0 0 0 0 0 0 0 0 0 0 0 0 0 0 0 0 0 0 0 0 0 0 0 0 0 0 0 0 0 0 0 0 0
0 0 0 0 0 0 0 0 0 0 0 0 0 0 0 0 0 0 0 0 0 0 0 0 0 0 0 0 0 0 0 0 0 0 0 0 0 0 0 0 0 0 0
0 0 0 0 0 0 0 0 0 0 0 0 0 0 0 0 0 0 0 0 0 0 0 0 0 0 0 0 0 0 0 0 0 0 0 0 0 0 0 0 0 0 0
0 0 0 0 0 0 0 0 0 0 0 0 0 0 0 0 0 0 0 0 0 0 0 0 0 0 0 0 0 0 0 0 0 0 0 0 0 0 0 0 0 0 0
0 0 0 0 0 0 0 0 0 0 0 0 0 0 0 0 0 0 0 0 0 0 0 0 0 0 0 0 0 0 0 0 0 0 0 0 0 0 0 0 0 0 0
0 0 0 0 0 0 0 0 0 0 0 0 0 0 0 0 0 0 0 0 0 0 0 0 0 0 0 0 0 0 0 0 0 0 0 0 0 0 0 0 0 0 0
0 0 0 0 0 0 0 0 0 0 0 0 0 0 0 0 0 0 0 0 0 0 0 0 0 0 0 0 0 0 0 0 0 0 0 0 0 0 0 0 0 0 0
Wind_Speed
3 3 3 4 4 4 4 5 5 5 5 5 6 6 6 6 6 5 6 6 7 7 6 6 7 5 4 4 3 3 3 3 3 2 0 1 2 5 5 4 5 5 4
3 3 4 4 4 5 5 6 6 6 6 6 6 6 7 7 6 6 7 7 7 8 8 7 7 5 6 4 4 5 4 4 3 3 2 2 2 5 6 6 5 5 4
4 4 5 5 5 6 6 6 6 6 6 6 6 6 7 7 7 7 7 7 8 8 8 8 8 7 6 5 5 5 4 4 3 3 3 2 2 4 5 5 5 4 4
4 4 5 6 6 6 6 6 6 6 7 7 7 7 7 8 8 8 7 8 8 8 8 9 8 8 8 7 6 6 5 4 4 3 3 3 3 4 5 5 4 3 3
4 5 6 6 6 6 6 7 7 7 8 7 7 7 7 7 8 8 8 8 7 8 8 8 9 11 12 10 7 6 6 5 4 4 4 4 4 5 5 4 5 4 3
5 6 6 6 6 6 7 7 7 7 8 7 7 8 8 9 11 12 9 6 6 7 7 7 8 10 12 14 14 13 11 8 7 5 4 5 6 6 5 6 6 6 4
5 6 6 6 7 7 8 7 8 8 8 8 8 8 9 10 14 15 15 8 7 7 7 7 8 8 9 7 11 14 13 14 13 8 6 6 6 7 8 8 7 5 4
6 6 6 6 7 8 7 8 8 7 8 8 9 9 9 11 14 15 15 10 8 8 8 8 8 7 7 7 6 7 7 8 10 8 7 6 6 6 8 8 7 5 4
6 7 7 7 8 9 9 9 8 8 8 8 8 9 9 11 13 14 13 6 6 8 8 8 8 8 10 11 7 6 6 6 9 11 10 8 9 10 9 7 8 7 5
7 7 8 7 8 9 10 9 8 7 8 8 8 8 8 9 11 13 11 5 6 6 6 6 10 11 12 13 9 8 7 6 6 7 7 7 6 8 12 10 9 8 5
7 7 8 8 8 9 8 7 7 7 7 7 8 7 7 8 9 11 10 6 6 5 5 5 6 12 14 14 11 8 9 7 6 6 5 4 4 4 7 7 7 8 7
6 7 8 9 8 8 8 8 7 6 6 6 6 6 5 5 6 7 9 9 8 5 5 5 6 11 13 13 10 9 11 9 5 5 4 4 4 4 5 7 8 7 5
7 8 9 9 8 7 7 8 7 5 4 5 4 5 5 4 4 6 6 7 8 5 4 6 6 8 9 8 10 11 8 5 4 4 5 4 4 5 4 5 5 5 4
7 8 8 8 9 8 6 5 5 5 4 4 4 4 4 4 3 3 3 2 4 4 2 3 4 5 5 5 6 6 5 5 5 5 5 4 3 4 4 4 5 5 5
7 7 8 7 7 8 7 6 5 5 5 5 4 4 4 4 4 6 3 2 2 3 3 2 2 2 3 3 3 4 4 4 4 3 4 3 3 4 4 4 5 5 5
6 7 6 6 7 6 7 7 7 7 8 7 7 5 4 5 7 6 4 3 3 5 4 3 3 3 4 4 5 4 4 4 4 4 4 4 4 4 4 4 5 6 6
6 7 6 6 7 7 6 6 7 6 6 6 6 7 6 6 5 4 2 1 1 4 3 3 3 4 4 4 4 5 5 5 5 5 4 4 4 4 5 5 6 6 6
7 8 8 6 6 6 6 6 5 5 5 4 4 6 6 6 4 3 1 0 1 1 2 3 3 4 4 4 4 4 4 4 4 5 5 5 5 5 5 6 6 7 7
6 6 6 6 6 6 6 5 4 4 4 4 3 3 4 4 4 4 2 2 2 2 3 3 3 4 4 4 4 4 5 5 5 5 5 6 6 6 5 6 6 9 7
6 11 10 6 6 6 5 5 4 4 4 4 3 3 1 1 2 2 3 3 3 3 3 3 3 4 4 4 5 4 5 5 5 5 6 6 6 6 7 8 7 8 7
5 8 12 8 5 5 5 5 4 4 4 4 3 3 3 2 3 3 2 3 3 3 3 3 3 3 3 3 4 5 6 5 5 6 6 6 6 6 6 7 7 7 7
5 5 6 6 6 5 5 5 4 4 4 4 3 3 3 2 3 3 2 2 3 3 3 3 2 3 3 3 4 4 5 5 5 6 6 6 6 6 7 7 7 7 8
5 6 6 6 5 6 6 4 4 4 4 4 3 3 2 2 2 2 2 2 2 2 2 2 2 2 2 2 3 4 5 5 6 7 7 6 6 7 7 8 9 10 10
5 5 5 5 5 5 5 5 4 4 4 4 3 3 2 2 2 2 1 1 1 1 0 1 1 2 3 2 2 2 3 4 5 6 8 8 7 7 7 8 9 11 10
4 5 5 5 5 5 5 5 5 5 4 4 3 3 2 2 1 1 1 1 1 1 1 1 1 1 2 2 3 2 4 6 6 6 6 7 8 8 8 9 8 9 10
4 4 4 4 4 4 4 4 4 5 4 4 3 2 2 1 1 1 1 1 1 2 2 2 2 3 3 3 4 5 5 6 6 6 6 7 8 8 8 7 10 9 10
Wind_Direction
291 286 292 289 287 286 281 277 275 272 271 268 266 265 262 259 252 243 240 237 230 231 228 223 228 218 208 205 199 199 205 204 223 238 174 127 116 131 125 118 117 116 122
282 283 283 282 284 284 280 277 275 273 271 266 265 265 264 263 252 243 246 247 233 232 230 223 226 221 214 206 199 198 202 201 205 212 189 163 146 149 137 135 130 122 115
284 288 289 288 286 281 277 275 274 271 270 269 265 261 261 261 257 248 241 240 235 232 227 220 219 211 213 208 205 203 202 205 199 193 193 181 155 148 132 127 121 114 119
289 290 287 284 279 275 275 275 274 271 268 265 260 257 256 256 256 252 246 241 238 235 228 221 215 206 206 203 205 207 199 198 198 191 185 180 162 149 139 141 138 129 130
290 287 281 278 279 281 283 281 278 275 276 266 264 263 259 258 257 251 243 246 239 238 234 226 220 217 212 203 201 196 193 192 194 194 188 175 170 161 164 154 153 140 120
286 284 282 284 288 288 285 282 281 278 274 269 265 263 262 267 268 262 250 243 235 232 234 231 230 229 225 216 212 198 188 186 192 194 192 188 186 173 162 161 156 158 166
291 289 291 291 291 288 290 292 284 280 275 272 267 262 260 259 259 259 255 243 230 228 228 226 234 230 217 214 217 211 203 199 188 182 187 192 181 176 167 169 175 167 163
297 296 296 294 292 290 288 285 282 278 276 273 271 266 263 264 260 254 251 245 235 230 226 219 217 224 219 207 206 204 201 203 197 188 189 195 188 176 175 173 164 139 108
300 299 296 295 296 296 293 289 284 282 282 277 273 269 265 267 262 255 245 230 229 232 228 220 213 217 220 207 193 195 201 211 208 199 196 200 199 183 168 156 158 159 151
296 296 295 294 294 294 291 288 284 281 279 282 280 274 267 266 265 255 238 218 224 229 226 221 219 215 215 203 191 188 200 206 187 187 197 210 203 191 181 176 171 170 152
293 298 299 297 294 290 287 286 289 288 288 287 287 286 279 273 272 261 240 212 212 217 218 216 219 214 210 203 192 188 201 191 178 173 175 179 179 184 189 185 178 174 169
300 302 302 300 299 305 297 295 294 293 294 295 295 298 294 292 284 273 250 221 207 206 214 213 213 206 202 197 193 194 195 182 164 162 166 173 181 189 192 187 186 184 176
306 305 303 304 300 296 293 295 300 299 293 295 297 299 303 306 309 310 283 239 216 203 210 209 207 200 191 189 195 189 181 169 160 163 174 185 190 189 176 173 170 162 145
306 305 304 305 305 303 296 287 288 290 292 295 296 299 302 306 315 328 319 274 218 208 205 195 180 168 158 160 168 176 172 174 170 172 180 184 172 167 171 169 164 159 146
306 304 305 301 299 302 298 285 278 266 252 264 273 276 292 302 304 307 293 261 213 195 160 135 126 140 158 155 153 163 170 168 171 165 165 166 170 171 170 164 156 154 157
307 307 304 303 303 301 302 304 286 269 269 259 249 251 266 271 299 308 292 266 235 183 158 155 164 172 177 177 175 177 178 181 180 172 171 171 174 173 167 162 160 160 160
297 300 301 300 301 303 303 302 308 307 282 267 262 256 252 277 295 311 312 292 228 166 164 174 178 185 188 183 181 180 185 187 176 173 176 178 174 171 166 168 168 164 162
299 301 301 295 297 298 297 294 293 299 308 304 272 250 255 266 277 287 292 148 187 198 202 193 195 194 192 189 189 188 187 179 176 179 179 178 176 173 171 173 172 168 163
301 300 300 298 298 296 296 297 298 300 296 293 294 280 253 263 273 266 253 229 221 223 218 214 210 203 198 194 195 194 188 184 181 178 181 180 178 174 175 176 173 170 164
301 306 312 305 302 304 306 306 305 303 302 297 288 275 245 227 266 248 223 224 230 234 223 217 214 205 199 197 196 191 188 186 184 184 184 182 179 177 176 174 173 173 174
303 309 315 314 305 304 305 305 304 300 297 298 289 271 226 232 263 269 246 227 226 229 225 220 212 203 198 192 186 187 187 188 186 185 181 179 177 174 173 171 171 171 168
301 302 304 305 305 307 307 307 309 304 301 300 293 292 265 251 265 266 251 240 236 231 222 210 206 202 195 191 187 186 188 187 183 179 176 173 172 172 169 169 168 168 168
302 304 307 308 306 309 314 316 318 314 311 308 301 292 287 271 270 269 265 258 247 238 223 202 196 202 204 196 189 187 187 188 181 174 172 171 171 172 170 168 168 166 166
300 303 306 311 312 315 318 321 324 323 322 317 312 306 299 294 291 291 298 309 312 303 236 180 184 199 195 182 182 182 181 175 170 171 168 167 166 164 161 162 163 164 161
301 307 311 313 314 317 322 327 330 334 334 328 325 327 328 328 329 340 7 27 38 41 71 87 99 120 137 149 155 148 149 154 161 161 157 156 156 154 152 152 153 153 153
310 314 319 321 321 325 327 329 332 339 338 334 340 344 340 338 333 355 27 59 54 50 61 70 74 77 86 97 112 118 118 124 131 138 142 144 145 145 145 142 147 149 149